Hourly Data Report for November 20, 2018

CARBERRY CS
MANITOBA
Current Station Operator: ECCC - MSC

49°54'20.900" N
99°21'26.800" W
383.50 m
5010547
71170
WZE

Download Data

Hourly Data (November 2018)
Hourly Data Report for November 20, 2018
TIME
LST
Temp Definition
°C
Dew Point Definition
°C
Rel Hum Definition
%
Precip. Amount Definition
mm

Wind Dir Definition
10's deg

Wind Spd Definition
km/h
Visibility Definition
km
Stn Press Definition
kPa
Hmdx Definition


Wind Chill Definition


Weather Definition


00:00 -12.5 -14.9 82 0.0 18 18   96.92   -21 LegendNANA
01:00 -12.0 -14.2 84 0.0 17 17   96.77   -20 LegendNANA
02:00 -11.3 -13.1 87 1.3 18 9   96.66   -16 LegendNANA
03:00 -10.8 -12.5 87 0.2 16 8   96.57   -15 LegendNANA
04:00 -9.4 -10.9 89 0.0 20 8   96.52   -14 LegendNANA
05:00 -8.0 -9.5 89 0.0 24 10   96.48   -13 LegendNANA
06:00 -6.8 -8.2 90 0.0 27 14   96.51   -13 LegendNANA
07:00 -6.2 -7.6 90 0.0 29 9   96.59   -10 LegendNANA
08:00 -6.2 -8.0 87 0.0 32 9   96.69   -10 LegendNANA
09:00 -7.5 -10.5 80 0.0 1 18   96.78   -14 LegendNANA
10:00 -8.0 -11.1 78 0.0 1 19   96.89   -15 LegendNANA
11:00 -8.0 -11.6 76 0.0 1 17   96.93   -15 LegendNANA
12:00 -7.8 -11.6 74 0.0 1 18   97.00   -15 LegendNANA
13:00 -8.0 -11.7 74 0.0 1 12   97.09   -13 LegendNANA
14:00 -7.8 -12.1 71 0.0 1 12   97.13   -13 LegendNANA
15:00 -8.3 -12.4 72 0.0 36 10   97.22   -13 LegendNANA
16:00 -9.2 -12.8 75 0.0 2 11   97.32   -15 LegendNANA
17:00 -9.6 -12.5 79 0.0 3 12   97.38   -15 LegendNANA
18:00 -9.8 -12.5 81 0.0 3 11   97.45   -15 LegendNANA
19:00 -10.2 -13.0 80 0.0 5 15   97.52   -17 LegendNANA
20:00 -10.6 -13.8 78 0.0 5 13   97.62   -17 LegendNANA
21:00 -10.8 -13.8 79 0.0 6 17   97.62   -18 LegendNANA
22:00 -11.0 -14.2 77 0.0 6 15   97.68   -18 LegendNANA
23:00 -11.2 -14.4 77 0.0 6 15   97.74   -18 LegendNANA

Notes on Data Quality.

Legend

  • E = Estimated
  • M = Missing
  • NA = Not Available*
  • [empty] = Indicates an unobserved value
Date modified: